Lapse_Rate
-2.0 -2.2 -2.5 -2.7 -2.9 -3.2 -3.5 -3.9 -4.2 -4.5 -4.7 -5.1 -5.2 -5.4 -5.7 -6.0 -6.0 -3.4 1.0 4.4 4.3 2.2 1.5 7.0 7.3 7.4 6.8 6.7 6.8 6.6 6.5 6.5 6.5 6.5 6.5 6.4 6.5 7.1 6.7 7.2 7.2 6.0 2.9 5.4 7.3
-2.0 -2.2 -2.4 -2.5 -2.8 -3.3 -3.5 -4.0 -4.5 -4.8 -5.1 -5.2 -5.7 -5.5 -5.8 -6.2 -3.6 0.3 2.9 2.5 2.8 2.4 5.4 7.5 7.6 7.2 5.6 6.2 5.7 5.7 6.5 6.5 6.5 6.5 6.5 6.6 6.6 5.9 6.5 5.5 5.3 7.0 4.9 7.8 7.1
-2.0 -2.2 -2.4 -2.6 -2.7 -3.1 -3.5 -3.9 -4.5 -5.0 -5.3 -5.6 -5.9 -5.6 -5.9 -6.2 0.1 6.4 1.3 1.4 1.6 2.0 6.5 8.0 7.8 7.3 5.9 5.5 5.2 5.5 6.5 6.5 6.6 6.9 6.9 6.2 6.6 6.7 6.6 6.5 4.6 5.5 6.7 7.6 7.1
-2.1 -2.3 -2.5 -2.6 -2.9 -3.2 -3.4 -3.7 -4.4 -5.1 -5.5 -5.7 -5.8 -5.6 -6.1 -3.8 6.5 4.8 -0.2 0.3 0.5 3.5 6.3 7.6 7.2 6.2 6.3 6.5 5.4 6.5 6.2 6.5 6.1 6.5 6.6 6.4 5.4 6.2 5.6 5.3 4.9 5.9 6.3 7.5 6.8
-2.3 -2.5 -2.7 -3.1 -3.3 -3.5 -3.6 -4.0 -4.5 -5.1 -5.4 -5.4 -5.4 -5.5 -4.9 2.7 5.2 1.3 -0.4 -0.3 1.6 3.9 6.1 6.8 6.5 5.8 6.5 6.1 5.8 6.5 6.5 5.9 6.0 5.5 6.2 6.1 6.0 6.4 6.3 6.1 5.6 6.8 6.8 7.1 6.9
-2.4 -2.7 -3.0 -3.3 -3.5 -3.8 -4.1 -4.4 -4.8 -5.1 -5.1 -4.7 -5.1 -5.8 -1.3 6.4 5.0 1.6 2.4 2.0 4.2 4.4 6.1 6.3 6.8 6.5 5.7 5.8 6.3 5.6 6.0 5.9 5.4 5.6 6.2 6.4 6.5 6.0 6.0 6.1 6.5 7.0 5.7 6.9 6.4
-2.5 -2.8 -3.1 -3.4 -3.7 -4.1 -4.5 -4.9 -5.2 -5.1 -4.9 -4.8 -5.0 -2.4 2.7 3.8 5.9 3.7 3.0 4.2 5.0 5.0 6.4 7.0 7.2 6.3 5.5 6.6 5.8 5.8 6.5 6.5 6.4 6.5 6.4 6.7 6.5 6.5 5.5 5.8 6.3 7.5 6.0 5.4 5.7
-2.5 -2.9 -3.3 -3.7 -4.0 -4.4 -5.0 -5.5 -5.6 -5.2 -4.5 -4.8 -4.8 -1.1 1.7 7.4 7.0 6.9 4.7 6.1 6.6 5.7 6.3 7.0 7.1 6.0 6.0 5.9 6.4 6.5 6.5 6.5 6.5 6.5 6.5 6.6 6.5 6.5 4.9 4.1 4.8 5.6 6.4 6.9 3.7
-2.5 -2.9 -3.4 -4.0 -4.3 -4.8 -5.6 -5.8 -5.7 -5.3 -4.2 -4.0 -2.4 1.5 5.5 6.4 7.6 7.4 7.0 7.7 7.1 7.3 7.6 8.9 7.4 5.7 5.8 6.5 6.5 6.5 6.5 6.5 6.5 6.5 6.5 6.5 6.5 6.5 5.2 5.4 5.7 6.0 5.3 5.9 5.2
-2.6 -3.0 -3.6 -4.1 -4.4 -5.1 -6.1 -5.2 -4.7 -5.1 -3.6 0.3 3.3 5.5 4.7 7.4 7.7 7.8 7.7 8.1 7.7 7.4 7.2 7.2 5.2 6.5 6.5 6.5 6.5 6.5 6.5 6.5 6.5 6.5 6.5 6.5 6.5 6.5 5.1 6.4 6.6 6.0 5.5 3.3 4.8
-2.5 -3.2 -3.8 -4.3 -4.7 -5.1 -5.9 -0.9 1.4 3.5 1.9 6.0 5.7 6.0 7.4 7.7 8.2 7.8 7.9 7.6 7.4 6.8 6.5 5.7 6.5 6.5 6.5 6.5 6.5 6.5 6.5 6.5 6.5 6.5 6.5 6.5 6.5 6.5 6.5 6.6 6.8 6.4 5.8 3.3 2.6
-2.3 -3.0 -3.7 -4.4 -5.1 -4.9 -5.8 3.3 7.6 7.7 5.4 7.3 7.6 7.7 8.1 7.9 7.1 7.7 7.9 6.3 6.0 6.5 6.2 6.5 6.5 6.5 6.5 6.5 6.5 6.5 6.5 6.5 6.5 6.5 6.5 6.5 6.5 6.5 6.5 6.0 4.3 6.8 6.8 3.1 3.8
-2.0 -2.7 -3.5 -4.4 -4.6 -1.9 4.8 5.7 8.0 7.4 5.7 7.0 6.9 7.2 7.1 6.8 6.7 6.7 6.9 6.5 6.4 6.5 6.5 6.5 6.5 6.5 6.5 6.5 6.5 6.5 6.5 6.5 6.5 6.5 6.5 6.5 6.5 6.5 6.5 5.9 6.1 5.8 4.1 4.4 4.7
-1.7 -2.3 -2.9 -5.4 0.7 2.7 5.0 8.6 7.6 7.8 6.5 6.5 6.4 6.9 7.1 6.8 6.2 7.9 7.6 6.8 6.5 6.5 6.5 6.5 6.4 6.5 6.5 6.5 6.5 6.5 6.5 6.5 6.5 6.5 6.5 6.5 6.5 6.5 6.5 6.5 6.5 5.1 2.9 2.2 4.8
-1.3 -2.1 -2.7 -3.2 -0.6 2.9 6.4 7.0 7.5 5.9 6.5 6.5 6.4 7.5 7.0 6.2 6.5 6.6 7.4 6.6 6.5 6.5 6.5 6.5 6.5 6.5 6.5 6.5 6.5 6.5 6.5 6.5 6.5 6.5 6.5 6.5 6.5 6.5 6.5 6.5 6.5 6.3 3.8 3.4 3.3
-0.8 -1.5 -3.1 3.1 -0.3 2.3 5.5 6.3 6.0 6.5 6.5 6.5 6.6 6.5 6.5 6.0 6.6 6.9 6.5 6.6 6.8 6.5 6.5 6.5 6.3 6.5 6.5 6.5 6.5 6.5 6.5 6.5 6.5 6.5 6.5 6.5 6.5 6.5 6.5 6.5 6.5 6.3 4.2 4.2 5.9
-1.4 -1.8 -2.9 1.8 3.4 5.6 4.7 5.8 6.5 6.5 6.5 6.5 6.5 6.5 6.5 6.5 6.5 6.5 6.5 6.5 6.5 6.5 6.5 6.5 6.5 6.5 6.4 6.5 6.5 6.5 6.5 6.5 6.5 6.5 6.5 6.5 6.5 6.5 6.5 6.5 6.5 6.4 5.9 6.4 6.0
-2.2 -2.8 -0.4 0.8 4.1 5.9 6.2 6.3 6.5 6.5 6.5 6.5 6.5 6.5 6.5 6.5 6.5 6.5 6.5 6.5 6.5 6.5 6.5 6.5 6.5 6.5 6.5 6.5 6.5 6.5 6.5 6.5 6.5 6.5 6.5 6.5 6.5 6.5 6.5 5.2 4.0 6.2 6.4 6.4 5.2
-2.2 2.8 4.2 3.4 2.7 4.2 5.5 6.5 6.5 6.5 6.5 6.5 6.5 6.5 6.5 6.5 6.5 6.5 6.5 6.5 6.5 6.5 6.5 6.5 6.5 6.5 6.5 6.5 6.5 6.5 6.5 6.5 6.5 6.5 6.5 6.5 6.5 6.5 6.5 6.5 5.4 6.4 6.6 6.5 5.9
-0.8 3.0 3.4 7.2 7.6 5.5 6.2 6.5 6.5 6.4 6.5 6.5 6.5 6.5 6.5 6.5 6.5 6.5 6.5 6.5 6.5 6.5 6.3 6.5 6.5 6.5 6.5 6.4 6.4 6.5 6.5 6.5 6.5 6.5 6.5 6.5 6.5 6.5 6.5 6.5 6.5 6.4 6.3 6.4 5.1
1.6 6.2 6.1 7.7 7.9 5.7 6.5 6.5 6.5 6.9 6.7 6.5 6.5 6.5 6.5 6.5 6.5 6.5 6.5 6.5 6.5 6.5 6.7 6.5 6.5 6.5 6.5 6.5 6.5 6.5 6.5 6.5 6.5 6.5 6.5 6.5 6.5 6.5 6.5 6.5 6.5 6.4 4.4 5.7 4.8
5.3 6.5 7.6 8.6 5.8 5.4 6.5 6.5 5.2 6.6 6.9 6.5 6.5 6.5 6.5 6.5 6.5 6.5 6.5 6.5 6.0 6.3 6.5 6.5 6.5 6.5 6.5 6.5 6.5 6.5 6.5 6.5 6.5 6.5 6.5 6.5 6.5 6.5 6.5 6.5 6.4 6.3 5.4 4.3 4.6
5.9 7.0 7.4 7.6 6.5 6.5 6.3 6.5 6.6 6.5 6.5 6.5 6.5 6.5 6.5 6.5 6.5 6.5 6.5 6.3 6.0 6.5 6.5 6.5 6.5 6.5 6.5 6.5 6.5 6.5 6.5 6.5 6.5 6.5 6.5 6.5 6.5 6.5 6.5 6.4 3.2 2.5 3.8 3.5 4.0
6.9 6.5 5.8 6.4 6.1 6.4 6.5 6.5 6.5 6.9 6.5 6.5 6.5 6.4 6.5 6.5 6.5 6.5 6.5 6.5 6.3 6.4 3.8 4.9 6.5 6.5 6.5 6.5 6.5 6.5 6.5 6.5 6.5 6.5 6.5 6.5 6.5 6.5 6.5 6.5 5.9 3.5 5.4 6.1 5.0
7.0 6.5 7.0 6.5 6.4 6.5 6.4 6.5 6.5 6.5 6.4 6.1 6.5 6.5 6.5 6.5 6.5 6.5 6.5 6.5 6.5 5.4 6.4 6.5 6.5 6.5 6.5 6.5 6.5 6.5 6.5 6.5 6.5 6.5 6.5 6.5 6.5 6.5 6.5 6.5 6.4 5.6 5.5 4.2 4.0
7.0 6.8 7.4 6.7 6.1 6.5 6.5 6.5 6.5 6.5 6.5 6.5 6.5 6.5 6.5 6.5 6.5 6.5 6.5 6.5 6.5 6.5 6.5 6.5 6.5 6.5 6.5 6.5 6.5 6.5 6.5 6.5 6.5 6.5 6.5 6.5 6.5 6.5 4.6 4.6 4.8 4.8 6.4 6.5 4.2
8.1 7.8 7.1 6.3 6.4 6.5 6.5 6.5 6.5 6.5 6.5 6.6 6.5 6.5 6.5 6.5 5.9 5.3 4.7 4.1 6.1 6.5 6.5 6.5 6.5 6.5 6.5 6.5 6.5 6.5 6.5 6.5 6.5 6.5 6.5 6.5 6.5 6.5 6.5 6.5 4.5 4.3 5.2 4.2 5.9
Wind_Speed
17 17 17 17 17 17 17 17 17 15 14 14 14 13 12 13 16 4 6 8 6 14 3 6 7 10 11 5 9 3 4 4 5 5 8 14 4 7 7 17 5 5 9 7 11
18 18 17 17 17 18 18 18 17 16 14 13 13 12 12 12 4 8 10 8 11 16 4 8 8 9 4 5 5 4 4 11 9 8 12 15 18 13 4 4 6 8 7 16 16
18 18 18 18 18 17 17 18 18 16 15 13 11 11 11 10 4 2 12 13 14 13 7 8 9 6 6 7 8 7 6 7 10 16 19 16 12 6 10 3 9 16 21 19 19
19 19 19 19 19 18 18 18 18 16 14 12 11 10 9 4 4 3 7 11 10 7 8 9 8 5 4 6 9 7 14 12 12 15 9 8 15 8 8 7 3 17 18 18 17
20 20 20 20 20 19 18 18 18 16 13 10 8 7 5 2 7 6 7 7 6 4 10 10 6 6 7 7 9 10 9 11 13 9 5 7 6 9 6 6 13 16 14 17 17
21 21 21 22 21 20 19 18 17 16 12 7 5 4 3 4 6 14 9 6 7 7 9 11 7 8 8 9 8 9 12 8 6 9 7 4 0 3 6 13 14 15 13 14 15
22 22 23 23 23 23 21 19 17 14 9 5 2 4 4 10 12 11 11 5 7 8 12 9 9 6 8 9 11 11 10 9 13 15 10 8 2 4 4 16 18 20 19 14 16
23 24 24 25 25 24 23 22 18 13 6 2 0 4 6 3 12 14 10 9 11 13 14 10 8 8 6 11 12 9 8 5 7 16 7 14 7 3 5 10 5 11 19 18 13
23 24 25 26 25 26 25 28 17 9 6 3 3 3 7 2 5 9 12 12 15 14 6 9 5 5 7 7 6 6 2 14 19 29 16 4 7 3 8 9 11 2 31 5 13
25 25 25 26 26 25 28 21 4 4 4 6 7 5 6 9 8 9 9 13 4 5 5 2 4 4 5 3 6 8 8 5 13 10 8 15 18 9 8 14 5 21 21 25 13
27 28 29 29 28 20 11 2 2 2 4 8 5 5 11 8 9 7 9 9 6 5 6 6 3 8 11 11 14 12 10 12 15 20 2 10 14 9 13 15 23 26 26 16 32
27 28 30 32 33 26 3 3 4 5 9 13 19 20 20 11 7 8 11 7 8 8 8 6 10 13 15 16 13 11 8 5 10 18 6 13 7 9 6 8 8 24 23 18 25
27 28 30 35 36 9 5 11 4 7 4 10 17 12 16 13 10 13 13 11 6 9 10 9 14 14 16 14 12 9 6 7 7 7 6 5 6 3 2 6 7 17 22 16 18
28 28 28 36 4 7 5 4 6 6 3 7 8 9 12 8 9 13 17 14 6 13 14 10 16 18 10 11 9 8 9 11 8 2 2 2 5 6 3 3 1 1 8 4 12
29 28 28 10 8 5 8 12 8 4 4 4 6 6 6 15 3 14 13 12 16 14 6 10 10 11 11 9 8 9 9 8 5 6 6 9 3 3 6 3 6 6 5 5 2
30 26 24 1 3 8 17 15 5 1 7 4 7 7 6 7 14 7 14 11 9 13 15 17 15 11 10 11 11 7 6 7 2 4 4 7 3 4 5 7 4 5 9 7 5
33 33 11 8 5 12 13 4 1 4 6 5 7 11 10 10 14 12 11 13 9 7 11 14 16 14 6 4 9 6 1 4 4 3 7 4 3 2 4 3 5 12 13 13 16
37 36 9 8 13 9 4 1 5 8 12 12 7 13 14 12 15 16 9 12 12 11 6 9 8 12 10 10 8 7 9 6 5 3 5 6 4 5 19 28 9 13 19 16 13
35 3 5 5 17 4 2 4 7 6 8 12 16 8 6 12 12 16 15 13 12 12 9 4 12 12 15 10 11 8 3 10 4 4 4 4 2 8 10 14 2 19 19 15 13
4 4 5 11 16 4 2 5 8 12 16 16 14 7 4 6 7 7 12 14 14 17 15 10 11 9 15 12 8 8 5 2 2 3 6 4 3 5 8 14 14 8 16 15 12
3 4 6 15 9 3 5 6 8 18 17 5 12 8 9 8 12 14 9 8 17 16 16 15 7 16 7 3 8 2 3 3 3 4 5 1 5 9 14 9 8 3 8 19 14
5 3 8 9 4 4 8 6 7 19 22 17 7 7 9 13 13 14 12 10 5 14 12 13 7 6 10 14 6 7 9 9 5 8 2 5 2 8 2 2 2 4 3 13 14
6 4 4 7 5 7 8 17 20 20 20 16 10 6 8 9 7 8 12 12 11 11 4 1 4 1 8 8 6 6 8 6 6 4 5 4 4 4 5 8 2 7 10 12 9
4 3 3 5 4 9 12 12 16 18 21 21 14 6 7 9 8 7 13 9 15 4 2 6 2 6 7 8 2 3 7 9 6 4 5 6 9 9 10 10 8 9 10 20 12
3 3 5 3 3 9 9 13 16 18 14 17 9 6 8 7 9 8 11 10 15 9 3 3 1 4 7 10 10 14 9 9 7 8 7 7 13 16 13 10 6 9 15 8 8
4 4 7 9 9 10 10 7 15 20 16 8 5 8 13 8 8 8 9 6 5 10 6 2 3 3 6 10 15 13 14 10 12 13 7 12 5 8 9 9 8 10 23 28 9
6 4 4 6 9 8 9 13 15 14 21 16 14 11 12 14 5 7 7 6 4 3 5 1 3 1 4 7 10 8 5 5 5 4 3 6 9 9 4 2 6 6 7 7 11
Wind_Direction
6 2 0 355 350 349 344 342 342 341 338 335 332 332 328 322 301 226 239 232 181 184 199 251 194 232 243 250 263 251 107 204 262 201 239 271 94 22 45 147 177 138 167 165 138
4 358 356 351 350 345 341 338 337 337 335 337 330 331 325 326 280 239 245 200 159 164 181 219 204 216 236 245 240 147 192 201 224 211 264 272 114 85 249 130 100 146 180 150 129
359 355 351 349 346 342 338 335 335 335 335 332 329 328 318 314 282 196 183 167 157 170 225 244 253 219 240 248 251 209 204 223 230 241 231 264 100 95 162 297 180 169 146 151 146
356 351 347 344 341 339 336 334 334 332 329 328 325 322 318 259 38 99 133 150 163 185 241 239 246 253 240 264 254 244 249 222 274 222 239 243 137 175 182 187 168 163 150 152 147
352 347 343 340 337 335 332 330 330 329 323 325 317 323 296 264 254 139 144 154 147 210 225 245 229 259 249 258 281 259 257 276 232 274 303 330 101 119 127 103 115 143 154 160 160
349 345 341 339 334 331 329 326 326 324 320 320 315 333 267 266 114 140 154 163 179 199 228 255 241 240 271 282 288 291 293 295 276 285 325 52 16 74 130 120 132 156 171 186 160
347 343 341 336 332 328 325 321 316 312 304 328 300 266 263 243 137 162 145 200 181 214 229 237 258 274 303 298 265 294 276 301 14 354 323 334 141 145 168 155 168 187 178 196 161
345 341 338 333 329 325 322 314 305 293 279 277 279 268 251 252 154 164 176 206 198 214 241 275 229 277 292 296 310 312 310 24 321 348 305 25 269 258 72 84 355 260 181 164 170
343 338 334 329 326 322 322 311 297 261 219 214 235 232 269 308 222 190 170 213 207 221 256 282 279 264 305 281 298 269 309 65 360 305 301 99 294 201 129 211 85 16 351 222 157
342 337 333 327 323 323 324 313 111 180 219 210 258 306 265 229 187 209 200 227 158 230 247 291 319 241 280 251 246 271 115 127 212 276 253 291 279 207 196 164 117 108 315 347 326
341 337 334 328 322 325 341 297 322 35 230 234 202 262 301 216 111 181 201 227 175 211 219 205 192 236 240 233 241 258 274 175 228 242 104 254 265 212 174 179 126 135 129 251 275
340 338 334 328 320 318 254 253 53 264 294 266 258 257 264 272 179 219 177 185 198 217 212 264 234 236 250 264 266 263 287 260 203 222 164 263 240 182 180 210 158 122 159 213 256
340 337 335 329 318 304 260 274 335 298 274 275 231 225 229 239 210 198 177 204 200 224 234 209 249 228 236 257 278 280 262 282 267 298 224 221 266 209 316 11 77 151 164 192 257
337 336 335 332 329 338 275 17 319 347 303 265 201 217 211 205 231 237 181 189 230 220 225 241 245 256 256 233 233 271 269 274 259 266 259 22 272 15 31 272 68 67 33 313 58
334 332 330 322 303 288 332 325 335 9 325 227 153 137 168 187 240 206 197 192 213 238 216 249 249 259 250 262 247 241 271 291 1 16 28 308 6 302 131 256 208 142 156 200 104
328 324 331 336 212 256 292 291 340 292 246 233 133 163 164 189 235 277 183 179 215 249 257 262 262 263 228 238 243 261 267 320 17 56 334 259 232 222 198 191 233 133 177 208 214
324 314 305 287 243 337 326 337 198 230 282 224 167 177 204 187 224 238 186 186 204 207 248 276 273 263 255 323 307 191 28 340 337 351 234 281 1 272 302 359 178 157 186 163 115
322 310 251 211 231 283 288 301 237 245 242 307 288 198 184 198 207 218 191 198 204 230 264 224 275 239 214 191 213 217 159 164 241 237 255 358 280 53 67 304 226 144 129 122 127
319 268 248 211 221 248 280 210 205 230 280 342 337 289 230 199 209 199 204 194 209 193 219 270 243 262 224 204 175 259 217 203 218 282 337 232 221 29 11 338 59 133 132 136 136
307 271 249 214 167 174 188 252 236 267 297 313 311 312 273 277 286 252 196 198 209 213 199 252 278 282 293 203 187 169 219 337 343 251 271 275 35 191 22 294 293 97 141 138 129
255 271 227 187 147 163 215 232 263 273 276 272 310 320 321 325 328 314 203 211 205 212 201 218 192 274 324 305 173 166 225 258 163 164 193 123 265 189 185 241 294 36 356 148 144
307 278 136 150 154 194 233 244 268 281 297 297 262 301 304 306 311 319 313 185 243 213 201 205 197 218 255 269 254 180 197 188 147 279 210 145 357 83 156 264 320 5 58 312 140
308 283 264 159 212 233 239 240 256 267 270 275 277 199 273 286 307 307 328 320 348 346 152 19 211 183 317 330 296 189 236 205 187 138 239 132 180 188 100 86 114 311 346 30 157
280 278 238 206 233 266 283 270 248 241 260 272 278 278 262 271 287 281 303 310 328 130 72 69 26 165 197 217 157 268 234 240 176 146 225 215 142 205 197 186 184 200 64 266 210
238 332 25 345 276 316 271 265 290 287 263 242 266 242 273 246 278 279 287 291 298 299 88 98 249 325 303 300 281 275 230 261 275 231 164 202 167 187 188 211 149 119 116 350 252
346 354 336 299 314 320 301 289 258 273 279 260 178 256 271 262 229 250 273 283 268 323 318 171 243 279 297 307 302 305 298 230 241 234 233 106 87 182 182 184 166 117 133 187 174
350 346 283 306 313 308 287 311 322 310 274 286 287 204 233 260 320 287 281 267 286 352 335 298 138 263 259 290 298 295 264 11 323 0 197 149 168 195 100 131 152 134 105 133 121